Flag for China Weather past 2 weeks in Shantou, Guangdong, China

Now
81 °F

Passing clouds.


Feels Like: 81 °F
Forecast: 67 / 82 °F
Wind: 10 mph from East

Location: Shantou Airport

Current Time: Apr 26, 2015 at 4:28:33 PM

Latest Report: Apr 26, 2015 at 4:00 PM


Visibility: N/A

Pressure: 29.98 "Hg

Humidity: 45%

Dew point: 57 °F

Location of ShantouLocation

Historic Weather in Shantou — Graph

°F

Shantou temperature yesterday

Maximum temperature yesterday: 81 °F (at 3:00 PM)
Minimum temperature yesterday: 66 °F (at 6:00 AM)
Average temperature yesterday: 73 °F

Past Weeks' High & Low Weather Summary

 TemperatureHumidityPressure
High90 °F (Apr 20, 1:00 PM)100% (Apr 11, 11:00 PM)30.15 "Hg (Apr 11, 11:00 PM)
Low52 °F (Apr 14, 6:00 AM)18% (Apr 14, 3:00 PM)29.71 "Hg (Apr 19, 4:00 PM)
Average71 °F73%29.98 "Hg
* Reported Apr 11 3:00 PM — Apr 26 3:00 PM, Shantou, Weather by CustomWeather, © 2015

Note: Actual official high and low records may vary slightly from our data, if they occured in-between our weather recording intervals... More about our weather records

Advertising

Shantou weather history for previous 24 hours

 ConditionsComfort  
Time TempWeatherWind HumidityBarometerVisibility
3:00 PM
Sun, Apr 26
82 °FPassing clouds.6 mph40%29.98 "HgN/A
2:00 PM82 °FSunny.8 mph42%30.01 "Hg10 mi
1:00 PM81 °FClear.6 mph48%30.04 "Hg5 mi
12:00 PM79 °FClear.6 mph61%30.07 "Hg5 mi
11:00 AM77 °FPassing clouds.3 mph57%30.07 "HgN/A
10:00 AM75 °FSunny.3 mph65%30.09 "Hg10 mi
9:00 AM72 °FBroken clouds.1 mph73%30.09 "HgN/A
8:00 AM72 °FBroken clouds.No wind73%30.09 "Hg5 mi
7:00 AM70 °FPartly sunny.1 mph83%30.07 "HgN/A
6:00 AM68 °FPartly sunny.1 mph88%30.04 "HgN/A
5:00 AM66 °FPassing clouds.No wind88%30.04 "HgN/A
4:00 AM68 °FPassing clouds.1 mph83%30.01 "HgN/A
3:00 AM68 °FPassing clouds.No wind78%30.01 "HgN/A
2:00 AM70 °FPassing clouds.1 mph73%30.04 "HgN/A
1:00 AM70 °FPartly cloudy.6 mph78%30.04 "HgN/A
12:00 AM70 °FPassing clouds.6 mph78%30.07 "HgN/A
11:00 PM
Sat, Apr 25
70 °FPassing clouds.8 mph78%30.07 "HgN/A
10:00 PM70 °FPassing clouds.8 mph83%30.07 "HgN/A
9:00 PM72 °FPassing clouds.8 mph78%30.07 "HgN/A
8:00 PM72 °FPassing clouds.8 mph78%30.04 "HgN/A
7:00 PM73 °FClear.13 mph74%30.01 "Hg10 mi
6:00 PM75 °FSunny.10 mph69%30.01 "Hg10 mi
5:00 PM77 °FPassing clouds.13 mph61%29.98 "HgN/A
4:00 PM79 °FPartly sunny.8 mph61%29.98 "HgN/A
Weather by CustomWeather, © 2015

See weather overviewHow to use our weather pages